If you wish to contribute or participate in the discussions about articles you are invited to join SKYbrary as a registered user

 Actions

Gibraltar Airport

From SKYbrary Wiki

LXGB
Airport
ICAO: LXGB – IATA: GIB
Summary
Name Gibraltar Airport
Region Europe
Territory Gibraltar GI.gif
Location Gibraltar, Gibraltar
Serving Gibraltar
Elevation 3.048 m <br />10 ft3.048 m <br />
Coordinates 36° 9' 3.58" N, 5° 20' 54.02" W
Runways
Designator Length Width Surface ROPS
9/27 1829 m6,000.656 ft <br /> 46 m150.919 ft <br /> ASP yes/yes


METAR
Observation LXGB 271350Z 06015KT 9999 BKN021 SCT031 20/16 Q1019 TEMPO FEW022 RMK WHT TEMPO BLU
Station Gibraltar
Date/Time 27 October 2021 13:50:00
Wind direction 60°
Wind speed 15 kts
Lowest cloud amount broken clouds
Temperature 20°C
Dew point 16°C
Humidity 77%
QNH 1019 hPa
Weather condition n/a

RE
Tag(s) Crosswind Landings
WX
Tag(s) Low Level Turbulence

International airport serving the British Overseas Territory of Gibraltar.

Climatology

Dry-summer subtropical ”Mediterranean" climate (Köppen climate classification Csa) - characterized by hot, dry summers and mild winters. During the summer, subtropical high pressure cells dominate, making rainfall unlikely except for the occasional thunderstorm. In the winter, periodic storms bring rain.

Maps

Terrain

Loading map...

Airport Layout

Loading map...


Accidents & Serious Incidents at or in vicinity of LXGB

None on SKYbrary